Regional Weather Roundup
Issued by NWS Cleveland, OH

Home | Current Version | Previous Version | Graphics & Text | Print | Product List | Glossary On
Versions: 1 2 3 4 5 6 7 8 9 10 11 12 13 14 15 16 17 18 19 20 21 22 23 24 25 26 27 28 29 30 31 32 33 34 35 36 37 38 39 40 41 42 43 44 45 46 47 48 49 50
000
ASUS41 KCLE 172310
RWRCLE
OHIO REGIONAL WEATHER ROUNDUP
NATIONAL WEATHER SERVICE CLEVELAND, OH
700 PM EDT THU APR 17 2014

NOTE: "FAIR" INDICATES FEW OR NO CLOUDS BELOW 12,000 FEET WITH NO
SIGNIFICANT WEATHER AND/OR OBSTRUCTIONS TO VISIBILITY.

OHZ001>008-015>018-024>027-034-035-043-044-180000-
   NORTHWEST OHIO

CITY           SKY/WX    TMP DP  RH WIND       PRES   REMARKS
DEFIANCE       SUNNY     66  27  23 SW15G21   30.23S
FINDLAY        MOSUNNY   63  36  36 S15       30.24S
TOLEDO EXPRESS MOSUNNY   65  28  24 SW13G20   30.23S
TOLEDO EXEC    MOSUNNY   66  31  27 SW17      30.24S
LIMA           MOSUNNY   65  33  30 S10       30.25S
$$

OHZ009>014-019>023-028>033-038-089-180000-
   NORTHEAST OHIO

CITY           SKY/WX    TMP DP  RH WIND       PRES   REMARKS
CLE-HOPKINS    PTSUNNY   65  31  28 S14G21    30.30S
CLE-LAKEFRONT  MOSUNNY   65  31  28 S13G22    30.26F
CUY CO. ARPT   MOSUNNY   64  30  27 SW16      30.29S
LORAIN-ELYRIA  MOSUNNY   66  33  29 S15G24    30.28S
ASHTABULA      MOSUNNY   62  29  28 S10       30.31F
AKRON-CANTON   MOSUNNY   62  28  26 S9        30.30S
WOOSTER        SUNNY     62  33  33 S9        30.29F
MANSFIELD      SUNNY     62  33  33 S12       30.28S
YOUNGSTOWN     PTSUNNY   62  25  24 SE12G21   30.31F
$$

OHZ042-051>053-060>062-070>072-077>081-180000-
  SOUTHWEST OHIO

CITY           SKY/WX    TMP DP  RH WIND       PRES   REMARKS
CINC-COVINGTON MOSUNNY   65  34  31 S8        30.26S
CINC-LUNKEN    MOSUNNY   65  34  31 S9        30.26S
HAMILTON       MOSUNNY   69  33  26 SW6       30.26F
DAYTON         PTSUNNY   65  32  29 S10       30.26F
WRIGHT-PAT AFB SUNNY     65  33  30 S13       30.25F
DAYTON GENERAL MOSUNNY   64  35  34 SW5       30.25F
WILMINGTON     MOSUNNY   64  34  32 S8        30.27F
$$

OHZ036-037-039>041-045>050-054>059-063>069-073>076-082>088-180000-
  CENTRAL AND SOUTHEAST OHIO

CITY           SKY/WX    TMP DP  RH WIND       PRES   REMARKS
COLUMBUS       PTSUNNY   67  28  23 S10       30.28S
OSU AIRPORT    SUNNY     65  30  27 S12       30.27F
BOLTON FIELD   SUNNY     66  34  30 S7        30.28F
RICKENBACK AFB SUNNY     68  22  17 S7        30.27F
NEWARK         SUNNY     65  27  23 S7        30.28S
MARION         SUNNY     63  32  31 SW15      30.27S
LANCASTER      SUNNY     65  29  25 S9        30.28F
ZANESVILLE     SUNNY     65  27  23 S9        30.29F
NEW PHILLY     SUNNY     65  27  23 SE7       30.31F
$$



USA.gov is the U.S. government's official web portal to all federal, state and local government web resources and services.